Dewpoint
60 60 61 60 61 59 60 58 58 58 57 55 54 53 51 51 52 54 52 53 53 52 52 52 51 52 52 52 52 54 54 54 54 54 53 53 53 52 51 49 48 48 47 47 47 47 45 43 43 45 47 46 44 43 40 41 41 42 43 41 41 45 45 45 42 42 42 42 39 33 37 38 31 33 35 41 43 40 39 42 45 47 45 42 43
59 59 59 59 58 58 59 59 58 59 59 56 53 52 52 51 54 55 53 52 52 51 50 52 52 53 51 52 53 52 53 53 54 55 53 54 54 54 53 51 52 50 52 48 46 47 49 46 44 45 44 44 45 39 38 39 36 33 36 40 39 42 44 42 39 39 41 41 38 37 39 37 34 35 43 45 44 43 36 40 39 37 37 41 41
57 59 59 60 59 58 58 58 59 60 60 57 53 50 52 53 52 54 54 53 52 51 51 52 52 52 52 52 52 53 53 54 56 55 55 55 54 55 55 53 53 53 52 51 49 49 49 48 48 48 48 48 47 45 41 42 39 34 37 38 39 41 39 40 41 41 41 40 43 41 41 44 45 35 37 41 41 39 37 40 37 36 37 41 40
58 57 57 58 60 60 60 60 60 61 60 57 56 52 54 54 53 53 52 54 53 53 52 51 51 52 52 52 51 52 53 55 55 55 54 55 55 55 54 55 54 54 54 52 50 51 53 52 51 50 50 50 49 47 45 45 44 41 41 42 43 43 47 46 46 47 46 45 45 40 42 44 41 38 36 37 40 39 36 37 38 37 38 38 40
56 56 56 57 59 59 60 60 61 61 60 58 57 54 53 53 54 51 51 50 50 52 52 51 52 51 53 51 51 52 53 55 55 55 56 56 55 56 55 55 57 55 55 54 56 54 54 54 53 52 51 51 52 49 49 49 45 45 43 42 44 48 50 49 49 47 47 46 46 44 44 42 39 42 39 38 38 37 37 38 39 39 43 43 43
57 58 58 59 58 59 60 60 61 60 59 58 57 55 54 54 54 53 51 50 51 52 52 51 51 50 51 52 52 53 54 55 57 57 56 56 57 56 55 55 55 55 55 56 57 55 57 54 56 54 53 53 53 52 52 51 47 47 46 47 47 46 48 49 49 49 48 47 46 45 46 43 43 45 44 42 43 42 41 41 41 41 41 43 43
58 58 58 59 60 59 59 60 60 60 61 61 61 59 54 54 52 51 52 52 51 52 51 52 53 53 52 54 53 54 54 58 57 55 56 56 56 56 56 56 56 56 56 54 54 56 58 58 57 57 54 53 54 53 53 52 51 50 49 50 48 46 47 48 48 47 48 53 50 48 46 46 47 45 44 42 42 41 43 42 43 42 45 44 44
58 59 59 58 58 58 61 61 60 60 60 59 58 59 58 59 56 52 52 53 53 53 52 53 55 53 54 53 53 53 54 54 55 55 55 55 55 56 57 58 58 58 59 56 55 55 55 56 56 58 57 58 57 57 54 54 54 52 50 50 50 49 47 46 47 46 49 51 55 53 45 45 45 46 45 44 43 43 43 45 45 45 45 45 44
57 58 58 57 58 57 59 59 59 57 57 57 58 59 59 59 59 60 56 54 58 56 58 54 54 54 54 54 53 55 56 57 59 60 58 55 56 57 58 58 58 58 57 56 57 57 57 57 57 57 57 56 51 51 51 51 57 55 53 52 51 50 48 48 48 48 48 49 51 50 46 46 45 46 44 44 45 44 46 46 45 45 43 42 42
56 56 57 58 59 58 59 58 57 56 58 58 58 59 58 59 59 58 58 59 58 57 56 56 57 58 58 56 57 59 59 58 50 45 47 58 57 57 58 59 57 58 55 56 57 58 57 57 57 57 54 54 52 48 45 46 47 52 54 55 54 51 50 49 47 45 46 45 46 45 46 46 45 47 46 47 47 47 46 46 44 42 43 42 42
54 55 56 55 57 57 56 56 55 56 57 56 58 57 55 58 57 57 56 57 57 56 56 56 57 56 54 56 58 57 59 54 41 40 43 44 57 60 58 57 58 57 58 56 55 57 57 55 58 57 56 53 55 47 46 45 44 43 43 45 45 56 51 49 48 47 46 46 46 45 45 45 46 47 47 46 46 46 45 45 44 43 42 40 38
55 55 55 56 55 55 55 56 55 56 56 55 56 56 57 57 56 56 56 57 57 58 58 56 56 57 58 57 58 57 55 39 40 41 41 42 44 55 54 53 53 51 52 52 54 55 55 53 55 57 57 57 55 56 49 43 43 42 41 40 40 39 38 50 50 49 49 46 45 45 45 45 46 46 46 46 45 44 44 44 43 43 42 40 40
54 55 56 55 56 57 55 53 55 56 56 56 57 57 55 56 55 56 56 58 58 57 57 58 57 58 57 57 56 54 52 36 39 39 41 42 43 48 50 50 48 49 50 49 48 48 47 48 50 51 52 54 52 51 53 51 42 40 41 40 38 37 35 36 37 45 46 47 47 46 45 46 46 46 48 47 45 44 43 41 42 41 41 40 39
49 52 53 54 55 55 55 54 55 55 56 56 56 55 54 55 58 57 58 57 57 58 58 59 58 56 57 55 50 49 50 36 37 38 40 40 41 43 49 48 49 48 48 48 48 48 48 47 46 47 52 53 52 52 48 55 52 51 50 50 50 44 37 37 37 38 41 43 45 45 49 47 45 48 47 46 44 42 41 40 42 40 40 39 41
43 44 44 46 48 47 48 48 50 52 53 54 54 54 55 56 56 55 57 57 56 57 57 56 57 54 51 50 49 48 52 36 38 38 38 39 41 39 50 47 47 48 49 51 50 50 49 51 49 48 50 53 51 48 53 48 49 51 51 50 48 46 46 45 45 45 44 44 44 47 48 47 47 47 46 44 43 42 42 41 41 40 41 41 41
37 39 39 39 39 40 41 42 44 46 47 49 50 51 53 53 54 54 53 54 52 52 51 51 51 49 49 48 46 45 51 37 39 41 40 40 39 54 48 47 47 47 49 49 49 50 52 51 48 51 52 49 42 37 41 50 49 47 48 47 48 47 43 37 36 37 41 43 43 44 43 44 39 43 41 39 38 38 38 38 38 38 36 35 35
36 37 38 37 38 39 39 40 41 42 42 43 44 47 48 48 49 49 50 49 48 47 48 48 47 46 46 46 46 45 49 43 39 40 39 38 40 55 43 44 46 47 48 49 50 50 49 49 51 48 48 46 39 36 37 39 49 46 45 47 47 45 43 42 37 35 35 35 35 35 35 34 34 34 33 34 38 38 34 33 32 33 32 31 32
37 38 39 38 38 38 38 38 39 40 40 41 42 43 44 45 45 45 45 44 45 45 45 44 44 43 44 45 45 44 47 45 38 39 38 39 40 53 44 43 43 44 45 46 48 46 44 44 48 49 48 45 36 36 36 44 49 46 44 45 46 45 45 44 43 41 35 34 34 34 33 33 33 34 35 35 34 36 34 30 32 31 31 30 28
39 38 38 37 37 38 39 39 40 39 39 41 44 42 42 42 42 42 42 42 43 43 42 42 42 42 43 45 49 47 47 46 37 37 38 38 45 50 44 39 43 43 44 44 46 46 43 40 40 40 42 40 35 35 35 42 48 45 43 43 42 43 46 46 45 44 44 44 42 41 40 37 38 38 38 35 35 37 36 36 35 33 33 33 34
36 37 37 39 40 40 41 40 41 40 39 40 43 42 41 42 45 43 44 40 39 39 39 40 41 42 44 46 45 47 47 48 48 37 39 39 39 48 45 38 39 41 41 39 43 44 43 41 38 34 34 35 35 35 35 36 46 46 45 43 44 44 44 44 41 40 40 40 42 42 41 41 42 42 42 40 37 37 38 38 38 37 35 32 32
38 38 38 37 36 36 37 40 42 42 41 41 42 41 40 41 43 43 42 42 42 42 41 41 41 42 44 44 42 44 48 48 49 36 37 37 38 40 45 42 40 41 39 38 40 42 41 39 38 36 35 35 35 35 35 35 36 43 42 42 39 41 37 40 40 33 39 39 39 39 39 39 39 39 39 39 39 39 39 39 39 37 33 32 30
37 36 36 36 37 37 38 40 43 45 44 43 44 43 43 43 44 43 39 40 42 42 42 41 40 40 43 43 44 44 50 48 49 39 37 39 38 37 45 48 44 39 38 38 37 39 41 39 38 36 34 34 34 34 35 35 35 38 38 33 33 32 40 36 38 39 39 38 35 33 33 31 29 31 30 31 31 32 33 33 33 33 32 31 31
35 36 36 37 37 38 39 41 41 43 44 44 44 44 44 44 44 43 42 41 41 41 42 40 40 40 41 40 41 44 49 47 43 45 37 38 37 36 35 43 38 50 38 38 38 42 41 40 36 36 34 34 34 34 34 34 34 35 33 32 30 32 34 33 35 36 32 31 33 32 30 29 31 30 31 31 32 34 33 32 31 31 33 33 33
34 35 36 36 36 35 35 37 39 40 41 42 42 45 44 42 42 42 41 39 39 40 39 39 38 36 37 39 40 41 46 45 40 41 41 36 36 35 36 36 38 46 48 41 38 43 41 39 36 34 34 33 33 33 33 33 33 32 31 32 33 34 32 33 31 33 32 30 30 31 32 31 31 31 32 34 32 33 34 34 34 34 34 34 34
33 34 34 33 35 36 37 36 37 38 39 39 40 40 41 43 40 41 41 39 38 38 38 40 40 38 37 39 38 39 43 42 46 40 37 35 35 35 35 36 35 37 48 43 44 43 37 34 33 33 33 32 32 32 32 32 32 32 32 32 35 31 35 32 32 33 30 30 30 33 32 32 32 33 34 34 35 34 34 34 35 34 34 33 33
34 34 33 33 31 29 32 33 34 35 37 36 38 38 40 39 39 40 39 39 39 40 38 38 39 41 37 37 37 39 40 41 44 43 38 37 36 35 35 36 36 36 37 37 34 33 33 33 33 32 33 32 35 35 33 32 32 32 32 33 34 34 31 30 32 32 31 31 32 31 31 31 31 33 34 34 33 31 32 32 31 31 32 32 31
34 35 35 33 32 29 29 29 31 34 37 35 36 36 35 37 39 40 41 39 40 41 45 37 39 39 45 37 38 40 40 42 44 42 40 40 40 38 39 39 35 35 36 35 34 33 33 33 31 32 33 33 33 32 33 32 32 32 32 33 35 32 31 32 32 33 32 31 30 30 31 30 32 32 31 31 31 31 32 31 30 30 31 30 30
33 33 34 34 33 32 31 30 31 32 33 34 34 37 36 37 35 41 39 39 42 44 45 39 36 36 42 36 37 40 45 44 47 43 39 39 40 39 41 40 41 41 39 38 36 33 33 33 34 35 36 35 32 32 31 34 34 32 31 30 30 32 32 32 32 33 33 29 29 30 30 32 32 31 31 31 31 31 32 31 31 31 31 31 30
32 33 33 33 33 32 32 30 29 27 27 29 31 32 34 34 36 37 40 45 47 46 43 47 48 49 47 38 35 42 44 40 38 42 42 35 36 38 40 40 41 40 38 36 36 36 34 35 33 35 33 32 32 34 33 32 30 30 36 34 33 33 33 31 33 30 29 31 31 31 31 31 32 32 31 31 32 31 32 31 31 31 31 31 30
33 32 31 31 32 32 33 30 29 27 27 26 28 29 32 38 44 42 47 36 34 36 41 47 49 49 50 46 43 42 42 44 35 35 35 35 35 35 36 36 36 38 36 35 36 35 34 34 34 33 34 33 30 28 29 29 29 28 30 28 29 30 29 30 30 29 29 30 30 30 31 31 30 30 30 30 31 31 31 31 31 31 31 31 30
30 30 30 30 30 32 31 31 30 29 28 27 28 26 28 43 32 34 36 36 35 34 34 34 34 35 46 45 39 35 35 35 35 35 35 35 35 35 35 35 34 34 34 34 34 33 33 33 33 33 31 30 29 30 28 26 25 25 28 29 29 29 27 29 28 28 28 29 30 30 30 29 30 30 30 30 30 30 30 31 31 31 31 31 30
26 27 28 30 32 31 31 31 32 32 31 31 30 28 27 27 39 35 34 35 35 35 35 34 35 35 35 39 40 39 34 34 35 35 35 35 35 34 34 34 34 34 33 34 33 33 33 32 31 31 30 29 27 26 27 27 27 28 27 26 26 27 28 27 31 29 30 30 28 28 28 29 30 29 30 30 30 30 30 31 31 31 31 30 30
29 30 30 31 30 30 30 31 33 35 35 33 33 30 28 28 26 38 36 34 34 34 34 34 35 35 35 35 34 34 36 37 35 35 35 34 34 34 34 34 33 33 33 32 33 32 32 32 30 30 30 27 27 27 29 29 27 27 26 26 25 27 28 31 32 30 27 28 28 28 28 28 29 29 29 29 30 29 30 30 30 31 31 30 30
29 29 31 32 33 34 34 35 35 35 35 32 30 28 27 29 26 26 36 39 38 37 34 34 34 34 34 34 34 34 34 34 34 34 34 34 34 33 34 34 33 33 32 33 31 30 30 30 29 29 29 28 30 29 27 28 26 26 25 25 28 28 28 29 27 26 26 28 28 28 28 29 29 29 29 29 30 30 29 29 30 29 30 30 30
29 30 31 31 32 32 33 34 35 36 37 38 37 34 36 33 36 34 34 34 40 37 36 37 34 35 41 35 34 34 35 34 34 34 34 34 33 33 33 34 31 31 31 33 31 31 29 30 30 30 29 28 28 29 28 29 26 25 25 25 24 24 25 26 26 28 29 28 29 28 28 29 30 29 29 29 29 29 29 29 30 30 30 31 30
29 29 31 32 32 33 34 35 37 36 35 35 37 37 36 34 37 34 35 35 35 40 39 37 36 34 33 36 34 35 35 34 34 34 33 33 33 33 32 31 31 31 30 31 31 31 30 30 30 31 29 28 30 28 27 27 26 25 21 22 20 21 25 25 26 27 29 30 27 27 28 28 28 28 28 29 30 29 29 29 29 30 30 30 30
29 29 30 31 33 35 37 38 38 39 35 34 35 35 35 35 35 36 36 35 37 36 42 42 41 38 35 37 35 35 34 34 34 33 33 32 32 32 34 32 31 31 30 31 30 29 30 30 29 29 29 29 28 27 28 28 26 26 22 23 21 21 23 26 25 26 26 24 24 27 28 27 28 28 28 28 28 28 29 29 29 30 30 30 31
29 29 31 33 35 36 37 39 42 34 34 33 34 34 39 34 33 34 34 33 34 32 35 36 39 39 35 36 37 36 34 34 33 33 33 32 31 32 33 32 31 31 30 31 30 31 31 29 30 29 29 29 28 30 27 25 24 24 23 22 21 18 23 21 27 29 27 26 25 25 26 27 27 28 28 28 28 28 29 29 29 29 30 30 30
30 32 33 33 33 37 39 37 34 35 35 33 34 33 32 32 32 33 32 32 32 32 32 34 34 32 36 36 35 35 34 34 33 33 31 31 31 32 32 31 30 30 31 30 30 29 30 30 31 29 28 29 28 27 26 26 23 22 21 19 16 16 19 19 23 25 26 26 26 26 26 26 27 28 28 28 28 29 29 30 30 30 30 30 30
36 37 37 35 36 36 35 34 33 33 33 33 33 33 32 32 32 32 32 32 32 33 33 32 32 32 32 36 35 35 34 34 34 33 32 31 31 31 29 30 31 30 30 30 29 29 29 29 29 28 28 27 26 25 24 24 25 20 20 16 16 16 17 20 23 24 26 27 27 27 27 27 27 27 28 28 29 29 29 29 30 30 30 30 31
38 38 36 35 34 34 36 34 33 33 32 32 32 32 32 33 33 32 32 32 32 32 32 33 32 33 34 34 33 33 33 34 33 33 32 31 31 30 30 31 31 30 29 29 30 28 28 27 27 28 27 27 26 25 24 23 22 19 18 17 17 18 18 21 24 26 27 27 27 28 28 29 29 29 28 29 30 30 29 29 30 30 30 31 31
37 39 40 41 36 35 33 32 32 32 32 32 32 33 33 33 33 33 32 32 32 32 33 33 33 35 33 32 32 33 34 34 33 32 32 30 31 31 30 30 29 30 29 29 29 29 28 28 28 26 25 25 23 23 22 21 20 19 18 18 19 19 20 21 24 26 27 27 28 28 29 29 28 28 29 31 29 29 29 29 30 30 30 30 31
42 41 40 36 35 34 33 33 32 32 32 32 32 32 33 34 35 34 34 34 34 33 33 33 34 34 33 32 34 33 34 33 32 32 32 32 31 30 30 30 30 30 30 30 29 28 26 26 25 25 25 24 24 22 22 22 21 21 20 21 21 20 23 23 24 25 26 27 28 28 29 28 27 28 29 29 29 29 30 30 30 30 30 30 31
39 38 36 36 35 34 33 33 32 33 33 32 32 32 34 34 35 35 34 34 33 33 33 33 32 32 32 33 34 34 35 35 34 34 33 31 31 30 30 30 30 29 29 29 28 28 28 25 26 26 27 25 27 27 24 23 23 23 23 23 23 24 24 25 26 26 27 27 27 28 28 28 28 28 29 29 29 29 30 31 30 30 30 30 30
39 39 38 37 35 35 35 34 34 34 33 33 33 34 33 36 34 34 33 33 32 33 33 32 32 33 34 35 35 35 35 35 32 32 32 32 32 31 31 30 29 30 28 27 28 27 27 27 28 27 26 24 24 25 26 25 26 24 24 24 25 24 25 26 26 27 27 28 27 28 28 28 28 28 28 29 29 30 30 31 30 30 30 30 30
37 36 38 38 36 36 35 36 35 34 34 34 34 35 35 36 35 34 34 34 33 33 33 33 33 33 33 34 34 33 35 35 34 33 32 31 30 30 30 30 29 28 28 28 30 31 29 28 27 27 25 24 25 27 27 29 27 27 27 27 26 25 26 27 27 27 27 28 28 28 28 28 29 29 29 29 29 30 31 31 31 30 30 30 30
37 37 39 37 35 35 35 36 35 34 33 33 33 34 35 36 36 34 33 34 34 34 35 35 35 35 34 35 34 34 34 34 33 33 34 32 30 29 29 30 28 29 28 29 30 29 29 28 28 27 27 26 26 27 27 25 27 26 26 27 28 28 26 26 27 27 27 28 28 28 28 28 29 29 29 29 30 30 31 30 29 30 30 30 30
38 37 35 35 35 35 35 34 34 34 33 32 33 33 33 35 36 36 36 35 35 35 36 36 36 36 35 35 35 34 34 34 34 33 32 30 30 29 28 29 28 28 29 28 28 28 28 28 28 28 27 27 27 26 27 27 28 27 27 28 28 27 26 26 27 27 27 27 28 28 28 28 29 29 29 30 30 30 30 29 29 29 30 30 30
35 34 35 35 34 33 33 32 33 32 32 32 32 32 32 33 35 36 37 37 36 37 37 36 36 37 36 36 36 36 35 33 33 33 31 30 29 29 29 29 29 30 28 28 28 29 29 29 28 28 28 27 26 26 26 28 27 28 27 27 27 26 26 26 26 27 27 27 27 28 28 29 29 29 30 30 30 30 29 30 29 29 29 30 30
34 34 33 32 33 32 32 31 31 31 30 31 31 31 31 31 32 32 34 35 36 37 37 35 35 36 36 35 34 33 32 31 31 30 30 30 29 29 28 28 29 29 28 28 28 29 28 29 29 28 27 27 27 27 26 26 26 26 26 26 26 25 25 25 26 27 27 27 27 27 28 29 29 30 30 30 30 30 30 29 29 29 29 30 30
32 32 32 31 32 32 33 33 32 31 31 30 30 31 30 30 31 31 31 32 32 33 33 33 32 33 33 32 31 31 31 30 30 30 30 30 30 29 28 29 29 29 29 29 28 28 28 29 27 26 26 26 26 26 24 25 24 23 24 25 24 24 24 25 25 26 27 27 27 28 28 29 29 30 30 30 31 30 29 29 29 29 29 29 29